This demonstration page uses our WeatherBlox Daily Observations layout. Learn more.

Left ArrowRight Arrow

34.16533, -84.80231

Hourly Observations for July 23, 2020

Temp ( °F °C ) Dew Point ( °F °C ) Humidity (%) Winds ( mph kmh ) Pressure ( in mb ) Visibility ( mi km ) Precip ( " mm )
12:53 am 00:53 Clear 73 22.8 71 21.7 94 94 Calm 30.10 1019 10 16 0.00 0.00
1:53 am 01:53 Partly Cloudy 75 23.9 70 21.1 84 84 SE 5 7 30.09 1019 10 16 0.00 0.00
2:53 am 02:53 Clear 74 23.3 71 21.7 91 91 Calm 30.09 1019 10 16 0.00 0.00
3:53 am 03:53 Clear 73 22.8 70 21.1 90 90 Calm 30.08 1019 9 14 0.00 0.00
4:53 am 04:53 Clear 74 23.3 71 21.7 91 91 Calm 30.09 1019 10 16 0.00 0.00
5:53 am 05:53 Clear 73 22.8 70 21.1 90 90 Calm 30.11 1020 9 14 0.00 0.00
6:53 am 06:53 Sunny with Mist and Fog 71 21.7 69 20.6 94 94 SE 3 6 30.12 1020 6 10 0.00 0.00
7:53 am 07:53 Sunny 75 23.9 71 21.7 88 88 Calm 30.14 1021 10 16 0.00 0.00
8:53 am 08:53 Sunny 79 26.1 72 22.2 79 79 SE 3 6 30.15 1021 10 16 0.00 0.00
9:53 am 09:53 Sunny 82 27.8 71 21.7 69 69 VRB 3 6 30.16 1021 10 16 0.00 0.00
10:53 am 10:53 Sunny 85 29.4 72 22.2 65 65 Calm 30.15 1021 10 16 0.00 0.00
11:53 am 11:53 Sunny 88 31.1 71 21.7 57 57 SSE 6 9 30.15 1021 10 16 0.00 0.00
12:53 pm 12:53 Partly Cloudy 90 32.2 71 21.7 54 54 VRB 3 6 30.14 1021 10 16 0.00 0.00
1:53 pm 13:53 Mostly Sunny 91 32.8 70 21.1 50 50 VRB 6 9 30.11 1020 10 16 0.00 0.00
2:53 pm 14:53 Sunny 92 33.3 69 20.6 47 47 SSW 8 13 30.08 1019 10 16 0.00 0.00
3:53 pm 15:53 Sunny 94 34.4 67 19.4 41 41 VRB 5 7 30.06 1018 10 16 0.00 0.00
4:53 pm 16:53 Mostly Cloudy 94 34.4 67 19.4 41 41 S 10 17 30.04 1017 10 16 0.00 0.00
5:53 pm 17:53 Mostly Cloudy 94 34.4 67 19.4 41 41 Calm 30.05 1018 10 16 0.00 0.00
6:53 pm 18:53 Mostly Sunny 93 33.9 67 19.4 42 42 Calm 30.05 1018 10 16 0.00 0.00
7:53 pm 19:53 Sunny 90 32.2 68 20 48 48 Calm 30.05 1018 10 16 0.00 0.00
8:53 pm 20:53 Clear 81 27.2 72 22.2 74 74 Calm 30.06 1018 10 16 0.00 0.00
9:53 pm 21:53 Mostly Clear 78 25.6 72 22.2 82 82 S 12 19 30.09 1019 10 16 0.00 0.00
10:53 pm 22:53 Mostly Clear 80 26.7 69 20.6 69 69 VRB 5 7 30.12 1020 10 16 0.00 0.00
11:53 pm 23:53 Clear 78 25.6 69 20.6 74 74 Calm 30.12 1020 10 16 0.00 0.00

Powered by AerisWeather